Showing default

FLOCK 4H 1, 66704

Orbit data source: Space-Track

FLOCK 4H 1, 66704 is a payload satellite owned by Planet (US) in SSO that was launched on Fri, 28 Nov 2025 UTC via an FALCON 9 launch vehicle from the Air Force Western Test Range (AFWTR). Payload-class satellites include a variety of spacecraft equipped with specific instruments for various scientific and technological missions. These include communications satellites like Starlink; space stations such as the ISS; scientific satellites like the Hubble; Earth observation satellites from companies like Planet Labs, Umbra, and HawkEye 360; GPS; miniature CubeSats for education and research; and military/defense satellites.

Loading next visibility...
Identifier
66704, 2025-276AQ
Orbit
SSO
Country
Flag of USUS
Related business
Manufacturer
Planet
Mission
Operational Commercial Imaging
Bus & Motor
CUBESAT 3U, Unknown motor
Mass
5.7 kg wet, 5.7 kg dry
Launch date (UTC)
2025-11-28 (2 months ago)
Launch vehicle
FALCON 9
Launch site
Air Force Western Test Range (AFWTR)
Object type
Payload
Rocket body
Debris
Shape & HBR
Box + 2 Pan, 1.0 m
Radar Cross Section
0.072 m²

Expand to show TLE details & history
Last TLE update: 1 day ago

TLE from 1 day ago
0 FLOCK 4H 1
1 66704U 25276AQ  26034.19133664  .00007390  00000-0  35808-3 0  9999
2 66704  97.4319 110.0797 0003428  77.5049 282.6569 15.18822393 10081
Epoch: 2026-02-03T04:35Z
TLE epoch observation values (Epoch: 2026-02-03T04:35:31.485Z)
Latitude
-0.00002°
Longitude
-92.1773°
Altitude
511.97 km
Speed
7.608 km/s
True Right ascension
07h 20m 19s
True Declination
0° 00' 00"
Sunlit
Object was in full shadow at epoch
Visualization orbit readout
Latitude
Unknown
Longitude
Unknown
Altitude
Unknown
Speed
Unknown
Apparent Right ascension
Unknown
Apparent Declination
Unknown
Sunlit
N/A
Visualization observer readout
Local Sidereal Time
07:05:42
Azimuth
Unknown
Elevation
Unknown
Doppler factor
Unknown
Orbital elements
Apogee altitude
508.727 km
Perigee altitude
504.007 km
Semi-major axis
6,884.504 km
Eccentricity
0.00034
Inclination
97.4319°
RAAN
110.0797°
Arg. of periapsis
77.5049°
True anomaly
282.61857°
Mean anomaly
282.6569°
Eccentric anomaly
282.63773°
Mean motion
3.79957 °/min
Orbital period
94.75 mins
BSTAR
0.00035808
Loading maneuver chart data...
Computing Atmospheric mass density...
Loading historical data...
Loading historical data...
Loading historical data...
Loading historical data...
Loading historical data...
Loading historical data...
Loading historical data...

Documentation

Showing up to 5 results
|